Location: Most
(50.5133°N, 13.6207°E)
Time: 10:17:07
(UTC+01:00)

SEEDS - Pass Details

Date: 29 November 2021
Orbit: 584 x 600 km, 97.6° (Epoch: 22 January)

Event Time Altitude Azimuth Distance (km) Brightness Sun altitude
Rises 04:33:36 0° 16° (NNE) 2,827 ? -29.1°
Reaches altitude 10° 04:35:47 10° 19° (NNE) 1,920 ? -28.7°
Enters shadow 04:36:56 18° 23° (NNE) 1,461 ? -28.5°
